ATLAS 5 CENTAUR DEB, 44002

Orbit data source: Space-Track

ATLAS 5 CENTAUR DEB, 44002 is space debris in HEO originally from a launch on Wed, 17 Sep 2014 UTC launched from the Air Force Eastern Test Range (AFETR). Debris objects in space refer to the collection of defunct objects orbiting the Earth. Examples of debris include non-operational satellites, rocket bodies, and fragments generated from explosions, collisions, or faulty payload assembly.

Loading next visibility...
Identifier
44002, 2014-055BH
Orbit
HEO
Country
Flag of USUS
Related business
Flag of USUnited Launch Alliance/Lockheed Martin (US)
Manufacturer
Unknown
Mission
Spacecraft
Bus & Motor
Unknown
Mass
Unknown
Launch date (UTC)
2014-09-17 (11 years ago)
Launch vehicle
Unknown
Launch site
Air Force Eastern Test Range (AFETR)
Object type
Payload
Rocket body
Debris
Shape & HBR
Unknown shape, 1.1 m
Radar Cross Section
Medium (>0.1 m² and <1 m²)

Expand to show TLE details & history
Last TLE update: 20 hours ago

TLE from 20 hours ago
0 ATLAS 5 CENTAUR DEB
1 44002U 14055BH  26045.77188088 -.00000055  00000-0  00000-0 0  9990
2 44002  19.7014 160.3820 4821792 134.0876 277.3506  1.83903642 50120
Epoch: 2026-02-14T18:31Z
TLE epoch observation values (Epoch: 2026-02-14T18:31:30.508Z)
Latitude
0.00004°
Longitude
97.62929°
Altitude
26,160.977 km
Speed
3.215 km/s
True Right ascension
10h 41m 11s
True Declination
0° 00' 00"
Sunlit
Object was in daylight at epoch
Visualization orbit readout
Latitude
Unknown
Longitude
Unknown
Altitude
Unknown
Speed
Unknown
Apparent Right ascension
Unknown
Apparent Declination
Unknown
Sunlit
N/A
Visualization observer readout
Local Sidereal Time
17:33:44
Azimuth
Unknown
Elevation
Unknown
Doppler factor
Unknown
Orbital elements
Apogee altitude
35,334.957 km
Perigee altitude
8,194.937 km
Semi-major axis
28,143.084 km
Eccentricity
0.48218
Inclination
19.7014°
RAAN
160.382°
Arg. of periapsis
134.0876°
True anomaly
225.87124°
Mean anomaly
277.3506°
Eccentric anomaly
251.19799°
Mean motion
0.45971 °/min
Orbital period
783.1 mins
BSTAR
0
Loading maneuver chart data...
Computing Atmospheric mass density...

Documentation

Showing up to 5 results
|